Location: Unspecified
(0.0000°N, 0.0000°E)
Time: 22:51:30

KKS-1 - Pass Details

Date: 10 December 2017
Orbit: 638 x 650 km, 98.4° (Epoch: 23 March)

Event Time Altitude Azimuth Distance (km) Brightness Sun altitude
Rises 05:14:18 0° 178° (S) 2,966 ? -8.9°
Reaches altitude 10° 05:16:34 10° 183° (S) 2,054 ? -8.3°
Maximum altitude 05:20:54 50° 258° (WSW) 831 ? -7.3°
Drops below altitude 10° 05:25:12 10° 333° (NNW) 2,043 ? -6.3°
Sets 05:27:28 0° 338° (NNW) 2,949 ? -5.8°
